Location: Altamira
(10.5079°N, 66.8544°W)
Time: 05:25:03
(UTC+00:00)

Envisat - Pass Details

Date: 01 December 2022
Orbit: 763 x 765 km, 98.2° (Epoch: 05 February)

Event Time Altitude Azimuth Distance (km) Brightness Sun altitude
Exits shadow 09:15:03 14° 236° (SW) 2,022 4.8 -18.0°
Drops below altitude 10° 09:15:56 10° 229° (SW) 2,294 5.2 -17.8°
Sets 09:18:34 0° 216° (SW) 3,220 6.1 -17.2°
